Time,TemperatureF,DewpointF,PressureIn,WindDirection,WindDirectionDegrees,WindSpeedMPH,WindSpeedGustMPH,Humidity,HourlyPrecipIn,Conditions,Clouds,dailyrainin,SoftwareType,DateUTC
2013-08-22 01:53:00,75.0,30.0,-100.00,NNE,21,-999.0,5.0,19,-99.99,,,-99.99,,2013-08-22 08:53:00,
2013-08-22 02:11:00,74.0,32.0,-100.00,NNE,22,-999.0,5.0,21,-99.99,,,-99.99,,2013-08-22 09:11:00,
2013-08-22 02:22:00,74.0,32.0,-100.00,NNE,22,-999.0,5.0,21,-99.99,,,-99.99,,2013-08-22 09:22:00,
2013-08-22 02:43:00,72.0,32.0,-100.00,NNE,22,-999.0,7.0,23,-99.99,,,-99.99,,2013-08-22 09:43:00,
2013-08-22 03:12:00,67.0,40.0,-100.00,NNE,22,-999.0,7.0,37,-99.99,,,-99.99,,2013-08-22 10:12:00,
2013-08-22 05:42:00,73.0,32.0,-100.00,NNE,16,-999.0,6.0,22,-99.99,,,-99.99,,2013-08-22 12:42:00,
2013-08-22 05:52:00,73.0,32.0,-100.00,NNE,16,-999.0,6.0,22,-99.99,,,-99.99,,2013-08-22 12:52:00,
2013-08-22 06:12:00,73.0,32.0,-100.00,NNE,20,2.0,6.0,22,-99.99,,,-99.99,,2013-08-22 13:12:00,
2013-08-22 06:42:00,72.0,32.0,-100.00,NNE,30,-999.0,6.0,23,-99.99,,,-99.99,,2013-08-22 13:42:00,
2013-08-22 06:52:00,72.0,32.0,-100.00,NNE,30,-999.0,6.0,23,-99.99,,,-99.99,,2013-08-22 13:52:00,
2013-08-22 07:11:00,73.0,33.0,-100.00,NNE,17,-999.0,5.0,23,-99.99,,,-99.99,,2013-08-22 14:11:00,
2013-08-22 07:22:00,73.0,33.0,-100.00,NNE,17,-999.0,5.0,23,-99.99,,,-99.99,,2013-08-22 14:22:00,
2013-08-22 07:42:00,74.0,32.0,-100.00,NNE,19,-999.0,5.0,21,-99.99,,,-99.99,,2013-08-22 14:42:00,
2013-08-22 07:52:00,74.0,32.0,-100.00,NNE,19,-999.0,5.0,21,-99.99,,,-99.99,,2013-08-22 14:52:00,
2013-08-22 10:42:00,86.0,41.0,-100.00,South,174,-999.0,6.0,21,-99.99,,,0.00,,2013-08-22 17:42:00,
2013-08-22 11:40:00,88.0,50.0,-100.00,SE,142,-999.0,8.0,27,-99.99,,,-99.99,,2013-08-22 18:40:00,
2013-08-22 11:52:00,89.0,52.0,-100.00,SSW,201,-999.0,8.0,28,-99.99,,,-99.99,,2013-08-22 18:52:00,
2013-08-22 12:11:00,88.0,50.0,-100.00,SE,142,-999.0,8.0,27,-99.99,,,-99.99,,2013-08-22 19:11:00,
2013-08-22 12:22:00,88.0,50.0,-100.00,SE,142,-999.0,8.0,27,-99.99,,,-99.99,,2013-08-22 19:22:00,
2013-08-22 12:32:00,88.0,50.0,-100.00,SE,142,-999.0,8.0,27,-99.99,,,-99.99,,2013-08-22 19:32:00,
2013-08-22 15:24:00,91.0,56.0,-100.00,WSW,251,-999.0,8.0,31,-99.99,,,-99.99,,2013-08-22 22:24:00,
2013-08-22 15:42:00,92.0,57.0,-100.00,WSW,237,-999.0,6.0,31,-99.99,,,-99.99,,2013-08-22 22:42:00,
2013-08-22 19:42:00,75.0,53.0,-100.00,SSW,207,-999.0,0.0,46,-99.99,,,-99.99,,2013-08-23 02:42:00,
2013-08-22 19:52:00,75.0,53.0,-100.00,SSW,207,-999.0,0.0,46,-99.99,,,-99.99,,2013-08-23 02:52:00,
2013-08-22 20:11:00,75.0,44.0,-100.00,SSW,207,-999.0,0.0,33,-99.99,,,-99.99,,2013-08-23 03:11:00,
2013-08-22 20:22:00,75.0,44.0,-100.00,SSW,207,-999.0,0.0,33,-99.99,,,-99.99,,2013-08-23 03:22:00,
2013-08-22 20:44:00,75.0,42.0,-100.00,SSW,207,-999.0,0.0,31,-99.99,,,-99.99,,2013-08-23 03:44:00,
2013-08-22 20:55:00,75.0,42.0,-100.00,SSW,207,-999.0,0.0,31,-99.99,,,-99.99,,2013-08-23 03:55:00,